"Sample Date","Sample Time","Sample Value","Units","Flow Rate","Sample Interval","Number Channels","Micron Size 0","Counts/Channel 0","Micron Size 1","Counts/Channel 1","Micron Size 2","Counts/Channel 2","Micron Size 3","Counts/Channel 3","Micron Size 4","Counts/Channel 4","Micron Size 5","Counts/Channel 5","Micron Size 6","Counts/Channel 6","Micron Size 7","Counts/Channel 7","Micron Size 8","Counts/Channel 8","Micron Size 9","Counts/Channel 9","Micron Size 10","Counts/Channel 10","Micron Size 11","Counts/Channel 11","Micron Size 12","Counts/Channel 12","Micron Size 13","Counts/Channel 13","Micron Size 14","Counts/Channel 14","Micron Size 15","Counts/Channel 15","Micron Size 16","Counts/Channel 16","Micron Size 17","Counts/Channel 17","Micron Size 18","Counts/Channel 18","Micron Size 19","Counts/Channel 19","Micron Size 20","Counts/Channel 20","Micron Size 21","Counts/Channel 21","Micron Size 22","Counts/Channel 22","Micron Size 23","Counts/Channel 23","Micron Size 24","Counts/Channel 24","Micron Size 25","Counts/Channel 25","Micron Size 26","Counts/Channel 26","Micron Size 27","Counts/Channel 27","Micron Size 28","Counts/Channel 28","Micron Size 29","Counts/Channel 29","Micron Size 30","Counts/Channel 30","Micron Size 31","Counts/Channel 31"
"04/01/08","02:00:00",8947.000,"cc",28328.266,6.00,6,0.100,6044.000,0.200,1180.000,0.300,641.000,0.500,802.000,1.000,280.000,5.000,0
"04/01/08","02:00:06",8884.000,"cc",28274.164,6.00,6,0.100,5984.000,0.200,1200.000,0.300,686.000,0.500,759.000,1.000,255.000,5.000,0
"04/01/08","02:00:12",8786.000,"cc",28347.773,6.00,6,0.100,5934.000,0.200,1203.000,0.300,647.000,0.500,749.000,1.000,253.000,5.000,0
"04/01/08","02:00:18",8934.000,"cc",28350.795,6.00,6,0.100,6049.000,0.200,1239.000,0.300,653.000,0.500,739.000,1.000,254.000,5.000,0
"04/01/08","02:00:24",9212.000,"cc",28283.799,6.00,6,0.100,6244.000,0.200,1249.000,0.300,706.000,0.500,756.000,1.000,257.000,5.000,0
"04/01/08","02:00:30",9078.000,"cc",28324.295,6.00,6,0.100,6179.000,0.200,1178.000,0.300,697.000,0.500,749.000,1.000,275.000,5.000,0
"04/01/08","02:00:36",8758.000,"cc",28318.482,6.00,6,0.100,5948.000,0.200,1178.000,0.300,701.000,0.500,699.000,1.000,232.000,5.000,0
"04/01/08","02:00:42",9257.000,"cc",28355.018,6.00,6,0.100,6228.000,0.200,1251.000,0.300,705.000,0.500,808.000,1.000,265.000,5.000,0
"04/01/08","02:00:48",8938.000,"cc",28305.525,6.00,6,0.100,6050.000,0.200,1194.000,0.300,667.000,0.500,795.000,1.000,232.000,5.000,0
"04/01/08","02:00:54",9044.000,"cc",28374.002,6.00,6,0.100,6071.000,0.200,1228.000,0.300,704.000,0.500,788.000,1.000,253.000,5.000,0
"04/01/08","02:01:00",8737.000,"cc",28373.152,6.00,6,0.100,5880.000,0.200,1186.000,0.300,692.000,0.500,718.000,1.000,261.000,5.000,0
"04/01/08","02:01:06",9011.000,"cc",28288.145,6.00,6,0.100,5983.000,0.200,1245.000,0.300,709.000,0.500,814.000,1.000,260.000,5.000,0
"04/01/08","02:01:12",8959.000,"cc",28308.529,6.00,6,0.100,5985.000,0.200,1243.000,0.300,703.000,0.500,778.000,1.000,250.000,5.000,0
"04/01/08","02:01:18",9257.000,"cc",28346.182,6.00,6,0.100,6133.000,0.200,1305.000,0.300,709.000,0.500,817.000,1.000,293.000,5.000,0
"04/01/08","02:01:24",9054.000,"cc",28274.121,6.00,6,0.100,6118.000,0.200,1266.000,0.300,673.000,0.500,730.000,1.000,267.000,5.000,0
"04/01/08","02:01:30",9036.000,"cc",28285.596,6.00,6,0.100,6069.000,0.200,1223.000,0.300,714.000,0.500,779.000,1.000,251.000,5.000,0
"04/01/08","02:01:36",9143.000,"cc",28333.592,6.00,6,0.100,6135.000,0.200,1292.000,0.300,703.000,0.500,749.000,1.000,264.000,5.000,0
"04/01/08","02:01:42",9043.000,"cc",28301.734,6.00,6,0.100,6055.000,0.200,1241.000,0.300,673.000,0.500,839.000,1.000,235.000,5.000,0
"04/01/08","02:01:48",8859.000,"cc",28368.033,6.00,6,0.100,5919.000,0.200,1247.000,0.300,697.000,0.500,757.000,1.000,239.000,5.000,0
"04/01/08","02:01:54",9010.000,"cc",28237.861,6.00,6,0.100,5987.000,0.200,1265.000,0.300,693.000,0.500,795.000,1.000,270.000,5.000,0
"04/01/08","02:02:00",8737.000,"cc",28332.604,6.00,6,0.100,5820.000,0.200,1254.000,0.300,666.000,0.500,762.000,1.000,235.000,5.000,0
"04/01/08","02:02:06",8849.000,"cc",28359.570,6.00,6,0.100,5964.000,0.200,1195.000,0.300,691.000,0.500,745.000,1.000,254.000,5.000,0
"04/01/08","02:02:12",8610.000,"cc",28280.049,6.00,6,0.100,5873.000,0.200,1151.000,0.300,650.000,0.500,688.000,1.000,248.000,5.000,0
"04/01/08","02:02:18",8646.000,"cc",28300.320,6.00,6,0.100,5807.000,0.200,1165.000,0.300,669.000,0.500,752.000,1.000,253.000,5.000,0
"04/01/08","02:02:24",8544.000,"cc",28278.426,6.00,6,0.100,5774.000,0.200,1122.000,0.300,667.000,0.500,730.000,1.000,251.000,5.000,0
"04/01/08","02:02:30",8670.000,"cc",28266.586,6.00,6,0.100,5891.000,0.200,1153.000,0.300,676.000,0.500,706.000,1.000,244.000,5.000,0
"04/01/08","02:02:36",8820.000,"cc",28371.688,6.00,6,0.100,5884.000,0.200,1187.000,0.300,713.000,0.500,779.000,1.000,257.000,5.000,0
"04/01/08","02:02:42",8643.000,"cc",28336.348,6.00,6,0.100,5811.000,0.200,1129.000,0.300,674.000,0.500,797.000,1.000,232.000,5.000,0
"04/01/08","02:02:48",8836.000,"cc",28337.205,6.00,6,0.100,5884.000,0.200,1230.000,0.300,676.000,0.500,769.000,1.000,277.000,5.000,0
"04/01/08","02:02:54",8877.000,"cc",28419.615,6.00,6,0.100,5897.000,0.200,1253.000,0.300,680.000,0.500,759.000,1.000,288.000,5.000,0
"04/01/08","02:03:00",8865.000,"cc",28369.330,6.00,6,0.100,5913.000,0.200,1230.000,0.300,678.000,0.500,756.000,1.000,288.000,5.000,0
"04/01/08","02:03:06",9078.000,"cc",28251.277,6.00,6,0.100,6090.000,0.200,1212.000,0.300,716.000,0.500,769.000,1.000,291.000,5.000,0
"04/01/08","02:03:12",8798.000,"cc",28276.297,6.00,6,0.100,5808.000,0.200,1225.000,0.300,732.000,0.500,750.000,1.000,283.000,5.000,0
"04/01/08","02:03:18",8887.000,"cc",28304.461,6.00,6,0.100,5931.000,0.200,1244.000,0.300,691.000,0.500,775.000,1.000,246.000,5.000,0
"04/01/08","02:03:24",9224.000,"cc",28296.270,6.00,6,0.100,6139.000,0.200,1281.000,0.300,693.000,0.500,825.000,1.000,286.000,5.000,0
"04/01/08","02:03:30",8920.000,"cc",28384.061,6.00,6,0.100,5947.000,0.200,1243.000,0.300,738.000,0.500,748.000,1.000,244.000,5.000,0
"04/01/08","02:03:36",9065.000,"cc",28272.611,6.00,6,0.100,6092.000,0.200,1251.000,0.300,680.000,0.500,786.000,1.000,256.000,5.000,0
"04/01/08","02:03:42",9082.000,"cc",28290.180,6.00,6,0.100,6030.000,0.200,1270.000,0.300,733.000,0.500,799.000,1.000,250.000,5.000,0
"04/01/08","02:03:48",9008.000,"cc",28350.857,6.00,6,0.100,5974.000,0.200,1309.000,0.300,706.000,0.500,750.000,1.000,269.000,5.000,0
"04/01/08","02:03:54",9091.000,"cc",28371.316,6.00,6,0.100,6053.000,0.200,1295.000,0.300,712.000,0.500,764.000,1.000,267.000,5.000,0
"04/01/08","02:04:00",9308.000,"cc",28340.113,6.00,6,0.100,6265.000,0.200,1320.000,0.300,632.000,0.500,798.000,1.000,293.000,5.000,0
"04/01/08","02:04:06",9176.000,"cc",28285.273,6.00,6,0.100,6124.000,0.200,1250.000,0.300,723.000,0.500,814.000,1.000,265.000,5.000,0
"04/01/08","02:04:12",9231.000,"cc",28339.609,6.00,6,0.100,6175.000,0.200,1314.000,0.300,703.000,0.500,787.000,1.000,252.000,5.000,0
"04/01/08","02:04:18",9209.000,"cc",28328.307,6.00,6,0.100,6139.000,0.200,1257.000,0.300,732.000,0.500,801.000,1.000,280.000,5.000,0
"04/01/08","02:04:24",9438.000,"cc",28278.725,6.00,6,0.100,6362.000,0.200,1342.000,0.300,726.000,0.500,753.000,1.000,255.000,5.000,0
"04/01/08","02:04:30",9121.000,"cc",28318.330,6.00,6,0.100,6126.000,0.200,1299.000,0.300,679.000,0.500,734.000,1.000,283.000,5.000,0
"04/01/08","02:04:36",9097.000,"cc",28316.219,6.00,6,0.100,6062.000,0.200,1309.000,0.300,655.000,0.500,798.000,1.000,273.000,5.000,0
"04/01/08","02:04:42",9275.000,"cc",28340.156,6.00,6,0.100,6147.000,0.200,1325.000,0.300,707.000,0.500,792.000,1.000,304.000,5.000,0
"04/01/08","02:04:48",9404.000,"cc",28243.738,6.00,6,0.100,6218.000,0.200,1334.000,0.300,740.000,0.500,823.000,1.000,289.000,5.000,0
"04/01/08","02:04:54",9240.000,"cc",28330.641,6.00,6,0.100,6164.000,0.200,1307.000,0.300,658.000,0.500,847.000,1.000,264.000,5.000,0
"04/01/08","02:05:00",9312.000,"cc",28338.416,6.00,6,0.100,6086.000,0.200,1347.000,0.300,722.000,0.500,853.000,1.000,304.000,5.000,0
"04/01/08","02:05:06",9326.000,"cc",28237.994,6.00,6,0.100,6081.000,0.200,1377.000,0.300,761.000,0.500,807.000,1.000,300.000,5.000,0
"04/01/08","02:05:12",9350.000,"cc",28275.014,6.00,6,0.100,6237.000,0.200,1296.000,0.300,747.000,0.500,811.000,1.000,259.000,5.000,0
"04/01/08","02:05:18",9374.000,"cc",28255.240,6.00,6,0.100,6316.000,0.200,1297.000,0.300,718.000,0.500,783.000,1.000,260.000,5.000,0
"04/01/08","02:05:24",9475.000,"cc",28402.106,6.00,6,0.100,6358.000,0.200,1274.000,0.300,711.000,0.500,831.000,1.000,301.000,5.000,0
"04/01/08","02:05:30",8996.000,"cc",28394.440,6.00,6,0.100,5959.000,0.200,1247.000,0.300,701.000,0.500,822.000,1.000,267.000,5.000,0
"04/01/08","02:05:36",9225.000,"cc",28278.231,6.00,6,0.100,6249.000,0.200,1270.000,0.300,695.000,0.500,754.000,1.000,257.000,5.000,0
"04/01/08","02:05:42",8940.000,"cc",28353.514,6.00,6,0.100,5868.000,0.200,1268.000,0.300,721.000,0.500,786.000,1.000,297.000,5.000,0
"04/01/08","02:05:48",9069.000,"cc",28312.106,6.00,6,0.100,6018.000,0.200,1319.000,0.300,671.000,0.500,791.000,1.000,270.000,5.000,0
"04/01/08","02:05:54",9107.000,"cc",28293.236,6.00,6,0.100,6069.000,0.200,1276.000,0.300,712.000,0.500,779.000,1.000,271.000,5.000,0
"04/01/08","02:06:00",9059.000,"cc",28286.061,6.00,6,0.100,6021.000,0.200,1300.000,0.300,705.000,0.500,796.000,1.000,237.000,5.000,0
"04/01/08","02:06:06",9302.000,"cc",28294.320,6.00,6,0.100,6108.000,0.200,1334.000,0.300,768.000,0.500,807.000,1.000,285.000,5.000,0
"04/01/08","02:06:12",9201.000,"cc",28350.160,6.00,6,0.100,6113.000,0.200,1316.000,0.300,705.000,0.500,791.000,1.000,276.000,5.000,0
"04/01/08","02:06:18",9630.000,"cc",28306.014,6.00,6,0.100,6359.000,0.200,1398.000,0.300,802.000,0.500,792.000,1.000,279.000,5.000,0
"04/01/08","02:06:24",9124.000,"cc",28316.264,6.00,6,0.100,6054.000,0.200,1314.000,0.300,660.000,0.500,815.000,1.000,281.000,5.000,0
"04/01/08","02:06:30",9000.000,"cc",28323.565,6.00,6,0.100,5928.000,0.200,1253.000,0.300,736.000,0.500,802.000,1.000,281.000,5.000,0
"04/01/08","02:06:36",9172.000,"cc",28284.793,6.00,6,0.100,5997.000,0.200,1362.000,0.300,682.000,0.500,837.000,1.000,294.000,5.000,0
"04/01/08","02:06:42",9220.000,"cc",28345.691,6.00,6,0.100,6083.000,0.200,1282.000,0.300,746.000,0.500,836.000,1.000,273.000,5.000,0
"04/01/08","02:06:48",9167.000,"cc",28343.994,6.00,6,0.100,6079.000,0.200,1310.000,0.300,711.000,0.500,781.000,1.000,286.000,5.000,0
"04/01/08","02:06:54",9113.000,"cc",28331.674,6.00,6,0.100,5987.000,0.200,1308.000,0.300,712.000,0.500,818.000,1.000,288.000,5.000,0
"04/01/08","02:07:00",9298.000,"cc",28331.889,6.00,6,0.100,6206.000,0.200,1286.000,0.300,725.000,0.500,780.000,1.000,301.000,5.000,0
"04/01/08","02:07:06",9126.000,"cc",28300.869,6.00,6,0.100,6074.000,0.200,1279.000,0.300,682.000,0.500,820.000,1.000,271.000,5.000,0
"04/01/08","02:07:12",9085.000,"cc",28284.986,6.00,6,0.100,6009.000,0.200,1351.000,0.300,683.000,0.500,739.000,1.000,303.000,5.000,0
"04/01/08","02:07:18",9003.000,"cc",28233.055,6.00,6,0.100,5974.000,0.200,1245.000,0.300,706.000,0.500,811.000,1.000,267.000,5.000,0
"04/01/08","02:07:24",9072.000,"cc",28376.078,6.00,6,0.100,6103.000,0.200,1224.000,0.300,701.000,0.500,784.000,1.000,260.000,5.000,0
"04/01/08","02:07:30",9177.000,"cc",28334.897,6.00,6,0.100,6103.000,0.200,1289.000,0.300,734.000,0.500,782.000,1.000,269.000,5.000,0
"04/01/08","02:07:36",9396.000,"cc",28378.272,6.00,6,0.100,6198.000,0.200,1335.000,0.300,764.000,0.500,833.000,1.000,266.000,5.000,0
"04/01/08","02:07:42",9560.000,"cc",28296.668,6.00,6,0.100,6236.000,0.200,1396.000,0.300,753.000,0.500,858.000,1.000,317.000,5.000,0
"04/01/08","02:07:48",9315.000,"cc",28279.727,6.00,6,0.100,6194.000,0.200,1322.000,0.300,721.000,0.500,805.000,1.000,273.000,5.000,0
"04/01/08","02:07:54",9427.000,"cc",28310.938,6.00,6,0.100,6146.000,0.200,1345.000,0.300,802.000,0.500,867.000,1.000,267.000,5.000,0
"04/01/08","02:08:00",9257.000,"cc",28300.938,6.00,6,0.100,6039.000,0.200,1325.000,0.300,777.000,0.500,838.000,1.000,278.000,5.000,0
"04/01/08","02:08:06",9139.000,"cc",28331.318,6.00,6,0.100,6130.000,0.200,1221.000,0.300,676.000,0.500,824.000,1.000,288.000,5.000,0
"04/01/08","02:08:12",9081.000,"cc",28331.647,6.00,6,0.100,6063.000,0.200,1278.000,0.300,740.000,0.500,726.000,1.000,274.000,5.000,0
"04/01/08","02:08:18",8958.000,"cc",28330.467,6.00,6,0.100,5948.000,0.200,1230.000,0.300,704.000,0.500,790.000,1.000,286.000,5.000,0
"04/01/08","02:08:24",8923.000,"cc",28388.984,6.00,6,0.100,5945.000,0.200,1285.000,0.300,696.000,0.500,757.000,1.000,240.000,5.000,0
"04/01/08","02:08:30",8876.000,"cc",28255.572,6.00,6,0.100,5875.000,0.200,1268.000,0.300,700.000,0.500,790.000,1.000,243.000,5.000,0
"04/01/08","02:08:36",8855.000,"cc",28302.848,6.00,6,0.100,5885.000,0.200,1202.000,0.300,726.000,0.500,775.000,1.000,267.000,5.000,0
"04/01/08","02:08:42",8806.000,"cc",28306.502,6.00,6,0.100,5841.000,0.200,1233.000,0.300,701.000,0.500,779.000,1.000,252.000,5.000,0
"04/01/08","02:08:48",8869.000,"cc",28347.750,6.00,6,0.100,5898.000,0.200,1234.000,0.300,679.000,0.500,787.000,1.000,271.000,5.000,0
"04/01/08","02:08:54",8607.000,"cc",28309.791,6.00,6,0.100,5739.000,0.200,1235.000,0.300,623.000,0.500,764.000,1.000,246.000,5.000,0
"04/01/08","02:09:00",8605.000,"cc",28322.652,6.00,6,0.100,5744.000,0.200,1232.000,0.300,664.000,0.500,713.000,1.000,252.000,5.000,0
"04/01/08","02:09:06",8758.000,"cc",28335.572,6.00,6,0.100,5888.000,0.200,1204.000,0.300,693.000,0.500,744.000,1.000,229.000,5.000,0
"04/01/08","02:09:12",8658.000,"cc",28310.006,6.00,6,0.100,5664.000,0.200,1214.000,0.300,707.000,0.500,778.000,1.000,295.000,5.000,0
"04/01/08","02:09:18",8809.000,"cc",28260.781,6.00,6,0.100,5937.000,0.200,1199.000,0.300,675.000,0.500,742.000,1.000,256.000,5.000,0
"04/01/08","02:09:24",8549.000,"cc",28315.154,6.00,6,0.100,5752.000,0.200,1167.000,0.300,672.000,0.500,698.000,1.000,260.000,5.000,0
"04/01/08","02:09:30",8654.000,"cc",28328.193,6.00,6,0.100,5856.000,0.200,1172.000,0.300,664.000,0.500,706.000,1.000,256.000,5.000,0
"04/01/08","02:09:36",8656.000,"cc",28295.428,6.00,6,0.100,5820.000,0.200,1207.000,0.300,627.000,0.500,743.000,1.000,259.000,5.000,0
"04/01/08","02:09:42",8594.000,"cc",28384.170,6.00,6,0.100,5824.000,0.200,1217.000,0.300,622.000,0.500,679.000,1.000,252.000,5.000,0
"04/01/08","02:09:48",8514.000,"cc",28294.859,6.00,6,0.100,5788.000,0.200,1152.000,0.300,625.000,0.500,710.000,1.000,239.000,5.000,0
"04/01/08","02:09:54",8665.000,"cc",28285.016,6.00,6,0.100,5849.000,0.200,1201.000,0.300,662.000,0.500,720.000,1.000,233.000,5.000,0
"04/01/08","02:10:00",8540.000,"cc",28318.668,6.00,6,0.100,5738.000,0.200,1203.000,0.300,658.000,0.500,706.000,1.000,235.000,5.000,0
"04/01/08","02:10:06",8660.000,"cc",28412.563,6.00,6,0.100,5883.000,0.200,1159.000,0.300,644.000,0.500,707.000,1.000,267.000,5.000,0
"04/01/08","02:10:12",8388.000,"cc",28321.377,6.00,6,0.100,5695.000,0.200,1143.000,0.300,602.000,0.500,724.000,1.000,224.000,5.000,0
"04/01/08","02:10:18",8279.000,"cc",28356.772,6.00,6,0.100,5640.000,0.200,1113.000,0.300,611.000,0.500,684.000,1.000,231.000,5.000,0
"04/01/08","02:10:24",8348.000,"cc",28318.705,6.00,6,0.100,5594.000,0.200,1162.000,0.300,652.000,0.500,721.000,1.000,219.000,5.000,0
"04/01/08","02:10:30",8405.000,"cc",28369.449,6.00,6,0.100,5639.000,0.200,1150.000,0.300,667.000,0.500,708.000,1.000,241.000,5.000,0
"04/01/08","02:10:36",8443.000,"cc",28269.988,6.00,6,0.100,5684.000,0.200,1207.000,0.300,608.000,0.500,705.000,1.000,239.000,5.000,0
"04/01/08","02:10:42",8326.000,"cc",28275.557,6.00,6,0.100,5689.000,0.200,1089.000,0.300,643.000,0.500,662.000,1.000,243.000,5.000,0
"04/01/08","02:10:48",8467.000,"cc",28316.766,6.00,6,0.100,5724.000,0.200,1168.000,0.300,624.000,0.500,707.000,1.000,244.000,5.000,0
"04/01/08","02:10:54",8612.000,"cc",28268.984,6.00,6,0.100,5708.000,0.200,1247.000,0.300,694.000,0.500,715.000,1.000,248.000,5.000,0
"04/01/08","02:11:00",8816.000,"cc",28337.705,6.00,6,0.100,5905.000,0.200,1230.000,0.300,676.000,0.500,715.000,1.000,290.000,5.000,0
"04/01/08","02:11:06",8344.000,"cc",28347.139,6.00,6,0.100,5631.000,0.200,1162.000,0.300,620.000,0.500,694.000,1.000,237.000,5.000,0
"04/01/08","02:11:12",8516.000,"cc",28320.555,6.00,6,0.100,5778.000,0.200,1133.000,0.300,632.000,0.500,738.000,1.000,235.000,5.000,0
"04/01/08","02:11:18",8317.000,"cc",28338.369,6.00,6,0.100,5647.000,0.200,1141.000,0.300,632.000,0.500,666.000,1.000,231.000,5.000,0
"04/01/08","02:11:24",8358.000,"cc",28371.023,6.00,6,0.100,5674.000,0.200,1165.000,0.300,604.000,0.500,679.000,1.000,236.000,5.000,0
"04/01/08","02:11:30",8568.000,"cc",28292.172,6.00,6,0.100,5808.000,0.200,1143.000,0.300,672.000,0.500,681.000,1.000,264.000,5.000,0
"04/01/08","02:11:36",8520.000,"cc",28280.299,6.00,6,0.100,5810.000,0.200,1171.000,0.300,650.000,0.500,641.000,1.000,248.000,5.000,0
"04/01/08","02:11:42",8393.000,"cc",28306.186,6.00,6,0.100,5676.000,0.200,1140.000,0.300,596.000,0.500,755.000,1.000,226.000,5.000,0
"04/01/08","02:11:48",8211.000,"cc",28320.537,6.00,6,0.100,5582.000,0.200,1130.000,0.300,596.000,0.500,677.000,1.000,226.000,5.000,0
"04/01/08","02:11:54",8538.000,"cc",28283.592,6.00,6,0.100,5844.000,0.200,1119.000,0.300,613.000,0.500,718.000,1.000,244.000,5.000,0
"04/01/08","02:12:00",8254.000,"cc",28316.793,6.00,6,0.100,5701.000,0.200,1114.000,0.300,571.000,0.500,667.000,1.000,201.000,5.000,0
"04/01/08","02:12:06",8413.000,"cc",28309.920,6.00,6,0.100,5722.000,0.200,1113.000,0.300,606.000,0.500,705.000,1.000,267.000,5.000,0
"04/01/08","02:12:12",8483.000,"cc",28283.170,6.00,6,0.100,5770.000,0.200,1105.000,0.300,650.000,0.500,702.000,1.000,256.000,5.000,0
"04/01/08","02:12:18",8504.000,"cc",28311.654,6.00,6,0.100,5738.000,0.200,1222.000,0.300,629.000,0.500,659.000,1.000,256.000,5.000,0
"04/01/08","02:12:24",8620.000,"cc",28337.393,6.00,6,0.100,5885.000,0.200,1152.000,0.300,630.000,0.500,713.000,1.000,240.000,5.000,0
"04/01/08","02:12:30",8534.000,"cc",28364.773,6.00,6,0.100,5718.000,0.200,1208.000,0.300,664.000,0.500,713.000,1.000,231.000,5.000,0
"04/01/08","02:12:36",8630.000,"cc",28343.578,6.00,6,0.100,5792.000,0.200,1204.000,0.300,663.000,0.500,717.000,1.000,254.000,5.000,0
"04/01/08","02:12:42",8494.000,"cc",28248.760,6.00,6,0.100,5687.000,0.200,1157.000,0.300,683.000,0.500,744.000,1.000,223.000,5.000,0
"04/01/08","02:12:48",8688.000,"cc",28315.428,6.00,6,0.100,5848.000,0.200,1211.000,0.300,641.000,0.500,752.000,1.000,236.000,5.000,0
"04/01/08","02:12:54",8602.000,"cc",28330.807,6.00,6,0.100,5766.000,0.200,1243.000,0.300,637.000,0.500,717.000,1.000,239.000,5.000,0
"04/01/08","02:13:00",8448.000,"cc",28370.713,6.00,6,0.100,5757.000,0.200,1112.000,0.300,599.000,0.500,716.000,1.000,264.000,5.000,0
"04/01/08","02:13:06",8626.000,"cc",28337.393,6.00,6,0.100,5795.000,0.200,1153.000,0.300,649.000,0.500,799.000,1.000,230.000,5.000,0
"04/01/08","02:13:12",8455.000,"cc",28276.326,6.00,6,0.100,5739.000,0.200,1171.000,0.300,611.000,0.500,681.000,1.000,253.000,5.000,0
"04/01/08","02:13:18",8781.000,"cc",28232.910,6.00,6,0.100,5925.000,0.200,1228.000,0.300,649.000,0.500,733.000,1.000,246.000,5.000,0
"04/01/08","02:13:24",8451.000,"cc",28326.039,6.00,6,0.100,5725.000,0.200,1174.000,0.300,647.000,0.500,692.000,1.000,213.000,5.000,0
"04/01/08","02:13:30",8699.000,"cc",28284.949,6.00,6,0.100,5721.000,0.200,1279.000,0.300,729.000,0.500,727.000,1.000,243.000,5.000,0
"04/01/08","02:13:36",8610.000,"cc",28318.697,6.00,6,0.100,5759.000,0.200,1217.000,0.300,663.000,0.500,726.000,1.000,245.000,5.000,0
"04/01/08","02:13:42",8884.000,"cc",28367.979,6.00,6,0.100,5944.000,0.200,1251.000,0.300,650.000,0.500,786.000,1.000,253.000,5.000,0
"04/01/08","02:13:48",8771.000,"cc",28357.695,6.00,6,0.100,5824.000,0.200,1210.000,0.300,688.000,0.500,775.000,1.000,274.000,5.000,0
"04/01/08","02:13:54",8615.000,"cc",28300.475,6.00,6,0.100,5791.000,0.200,1184.000,0.300,630.000,0.500,751.000,1.000,259.000,5.000,0
"04/01/08","02:14:00",8420.000,"cc",28356.172,6.00,6,0.100,5750.000,0.200,1112.000,0.300,646.000,0.500,679.000,1.000,233.000,5.000,0
"04/01/08","02:14:06",8229.000,"cc",28335.572,6.00,6,0.100,5527.000,0.200,1182.000,0.300,557.000,0.500,699.000,1.000,264.000,5.000,0
"04/01/08","02:14:12",8548.000,"cc",28304.920,6.00,6,0.100,5825.000,0.200,1151.000,0.300,649.000,0.500,695.000,1.000,228.000,5.000,0
"04/01/08","02:14:18",8502.000,"cc",28340.877,6.00,6,0.100,5728.000,0.200,1176.000,0.300,594.000,0.500,748.000,1.000,256.000,5.000,0
"04/01/08","02:14:24",8499.000,"cc",28249.481,6.00,6,0.100,5733.000,0.200,1165.000,0.300,608.000,0.500,733.000,1.000,260.000,5.000,0
"04/01/08","02:14:30",8441.000,"cc",28364.598,6.00,6,0.100,5723.000,0.200,1153.000,0.300,629.000,0.500,690.000,1.000,246.000,5.000,0
"04/01/08","02:14:36",8437.000,"cc",28340.514,6.00,6,0.100,5745.000,0.200,1154.000,0.300,592.000,0.500,705.000,1.000,241.000,5.000,0
"04/01/08","02:14:42",8505.000,"cc",28306.463,6.00,6,0.100,5709.000,0.200,1214.000,0.300,600.000,0.500,736.000,1.000,246.000,5.000,0
"04/01/08","02:14:48",8337.000,"cc",28315.408,6.00,6,0.100,5638.000,0.200,1112.000,0.300,645.000,0.500,690.000,1.000,252.000,5.000,0
"04/01/08","02:14:54",8628.000,"cc",28250.492,6.00,6,0.100,5757.000,0.200,1201.000,0.300,635.000,0.500,756.000,1.000,279.000,5.000,0
"04/01/08","02:15:00",8309.000,"cc",28363.270,6.00,6,0.100,5703.000,0.200,1119.000,0.300,583.000,0.500,688.000,1.000,216.000,5.000,0
"04/01/08","02:15:06",8133.000,"cc",28287.984,6.00,6,0.100,5551.000,0.200,1082.000,0.300,616.000,0.500,682.000,1.000,202.000,5.000,0
"04/01/08","02:15:12",8183.000,"cc",28284.518,6.00,6,0.100,5414.000,0.200,1200.000,0.300,667.000,0.500,705.000,1.000,197.000,5.000,0
"04/01/08","02:15:18",8468.000,"cc",28371.666,6.00,6,0.100,5746.000,0.200,1111.000,0.300,638.000,0.500,705.000,1.000,268.000,5.000,0
"04/01/08","02:15:24",8479.000,"cc",28250.273,6.00,6,0.100,5707.000,0.200,1188.000,0.300,627.000,0.500,717.000,1.000,240.000,5.000,0
"04/01/08","02:15:30",8445.000,"cc",28318.492,6.00,6,0.100,5696.000,0.200,1158.000,0.300,644.000,0.500,715.000,1.000,232.000,5.000,0
"04/01/08","02:15:36",8617.000,"cc",28275.672,6.00,6,0.100,5751.000,0.200,1193.000,0.300,711.000,0.500,711.000,1.000,251.000,5.000,0
"04/01/08","02:15:42",8328.000,"cc",28316.016,6.00,6,0.100,5679.000,0.200,1090.000,0.300,622.000,0.500,724.000,1.000,213.000,5.000,0
"04/01/08","02:15:48",8405.000,"cc",28367.066,6.00,6,0.100,5784.000,0.200,1086.000,0.300,603.000,0.500,692.000,1.000,240.000,5.000,0
"04/01/08","02:15:54",8447.000,"cc",28375.955,6.00,6,0.100,5706.000,0.200,1147.000,0.300,621.000,0.500,736.000,1.000,237.000,5.000,0
"04/01/08","02:16:00",8191.000,"cc",28322.371,6.00,6,0.100,5607.000,0.200,1073.000,0.300,607.000,0.500,693.000,1.000,211.000,5.000,0
"04/01/08","02:16:06",8045.000,"cc",28278.477,6.00,6,0.100,5390.000,0.200,1129.000,0.300,623.000,0.500,685.000,1.000,218.000,5.000,0
"04/01/08","02:16:12",8018.000,"cc",28289.227,6.00,6,0.100,5526.000,0.200,1062.000,0.300,562.000,0.500,616.000,1.000,252.000,5.000,0
"04/01/08","02:16:18",8256.000,"cc",28312.850,6.00,6,0.100,5688.000,0.200,1129.000,0.300,581.000,0.500,629.000,1.000,229.000,5.000,0
"04/01/08","02:16:24",8259.000,"cc",28318.012,6.00,6,0.100,5633.000,0.200,1108.000,0.300,595.000,0.500,700.000,1.000,223.000,5.000,0
"04/01/08","02:16:30",8166.000,"cc",28339.111,6.00,6,0.100,5566.000,0.200,1082.000,0.300,612.000,0.500,672.000,1.000,234.000,5.000,0
"04/01/08","02:16:36",7959.000,"cc",28231.547,6.00,6,0.100,5391.000,0.200,1120.000,0.300,579.000,0.500,655.000,1.000,214.000,5.000,0
"04/01/08","02:16:42",8239.000,"cc",28328.219,6.00,6,0.100,5579.000,0.200,1191.000,0.300,584.000,0.500,673.000,1.000,212.000,5.000,0
"04/01/08","02:16:48",8248.000,"cc",28373.934,6.00,6,0.100,5611.000,0.200,1134.000,0.300,608.000,0.500,664.000,1.000,231.000,5.000,0